Regional Weather Roundup
Issued by NWS Charleston, WV

Home | Current Version | Previous Version | Graphics & Text | Print | Product List | Glossary On
Versions: 1 2 3 4 5 6 7 8 9 10 11 12 13 14 15 16 17 18 19 20 21 22 23 24 25 26 27 28 29 30 31 32 33 34 35 36 37 38 39 40 41 42 43 44 45 46 47 48 49 50
000
ASUS41 KRLX 202210
RWRRLX
West Virginia Regional Weather Roundup
National Weather Service Charleston WV
500 PM EST SAT DEC 20 2014

Note: "fair" indicates few or no clouds below 12,000 feet with no
significant weather and/or obstructions to visibility.

WVZ003-202300-
Northern Panhandle of West Virginia

CITY           SKY/WX    TMP DP  RH WIND       PRES   REMARKS
WHEELING       CLOUDY    29  19  66 E5        30.22F
$$

WVZ009-202300-
Northwest West Virginia

CITY           SKY/WX    TMP DP  RH WIND       PRES   REMARKS
PARKERSBURG    CLOUDY    33  22  63 NW3       30.27R
$$

WVZ006-202300-
Western West Virginia

CITY           SKY/WX    TMP DP  RH WIND       PRES   REMARKS
HUNTINGTON     CLOUDY    34  25  69 NW5       30.24R
$$

WVZ015-202300-
West Central West Virginia

CITY           SKY/WX    TMP DP  RH WIND       PRES   REMARKS
CHARLESTON     CLOUDY    35  24  64 CALM      30.22S
$$

WVZ022-031-202300-
North Central West Virginia

CITY           SKY/WX    TMP DP  RH WIND       PRES   REMARKS
CLARKSBURG     NOT AVBL
MORGANTOWN     CLOUDY    31  18  58 N7        30.23S
$$

WVZ025-035-042-045-202300-
Southern West Virginia

CITY           SKY/WX    TMP DP  RH WIND       PRES   REMARKS
BECKLEY        CLOUDY    35  29  78 CALM      30.15R
LOGAN          CLOUDY    34  27  75 CALM      30.18S
BLUEFIELD      CLOUDY    35  32  88 W3        30.14R FOG
LEWISBURG      CLOUDY    36  29  75 S3        30.15S
$$

WVZ047-202300-
Northern Mountains of West Virginia

CITY           SKY/WX    TMP DP  RH WIND       PRES   REMARKS
ELKINS         CLOUDY    33  25  72 N6        30.18R
$$

WVZ052-202300-
Eastern Panhandle of West Virginia

CITY           SKY/WX    TMP DP  RH WIND       PRES   REMARKS
MARTINSBURG    CLOUDY    34  19  54 CALM      30.26R
PETERSBURG     CLOUDY    35  22  59 CALM      30.23R
$$


USA.gov is the U.S. government's official web portal to all federal, state and local government web resources and services.